Stündliche Wetter Barrancas

Heute, 31 Oktober, Samstag

Zeit Temperatur Niederschläge Wind Luftdruck Luftfeuchtigkeit
00:00 +24°C° 0 mm 1 m/S 719 mmHg 90%
01:00 +24°C° 0 mm 1 m/S 719 mmHg 90%
02:00 +24°C° 0 mm 1 m/S 719 mmHg 89%
03:00 +24°C° 0 mm 1 m/S 718 mmHg 89%
04:00 +23°C° 0 mm 1 m/S 718 mmHg 89%
05:00 +24°C° 0.2 mm 1 m/S 719 mmHg 88%
06:00 +25°C° 0.2 mm 1 m/S 719 mmHg 87%
07:00 +25°C° 0.2 mm 1 m/S 720 mmHg 86%
08:00 +27°C° 0.5 mm 2 m/S 720 mmHg 81%
09:00 +28°C° 0.5 mm 2 m/S 720 mmHg 75%
10:00 +30°C° 0.5 mm 3 m/S 721 mmHg 70%
11:00 +30°C° 1.9 mm 3 m/S 720 mmHg 73%
12:00 +29°C° 1.9 mm 3 m/S 719 mmHg 77%
13:00 +29°C° 1.9 mm 3 m/S 718 mmHg 80%
14:00 +28°C° 1.5 mm 2 m/S 718 mmHg 83%
15:00 +28°C° 1.5 mm 1 m/S 718 mmHg 85%
16:00 +27°C° 1.5 mm 1 m/S 718 mmHg 87%
17:00 +26°C° 1.3 mm 1 m/S 718 mmHg 89%
18:00 +25°C° 1.3 mm 1 m/S 718 mmHg 91%
19:00 +24°C° 1.3 mm 1 m/S 719 mmHg 93%
20:00 +24°C° 0 mm 1 m/S 719 mmHg 93%
21:00 +24°C° 0 mm 1 m/S 719 mmHg 92%
22:00 +24°C° 0 mm 1 m/S 720 mmHg 92%
23:00 +24°C° 0 mm 1 m/S 719 mmHg 91%

Morgen, 1 November, Sonntag

Zeit Temperatur Niederschläge Wind Luftdruck Luftfeuchtigkeit
00:00 +24°C° 0 mm 1 m/S 719 mmHg 91%
01:00 +24°C° 0 mm 1 m/S 718 mmHg 90%
02:00 +24°C° 0.1 mm 1 m/S 718 mmHg 90%
03:00 +24°C° 0.1 mm 1 m/S 718 mmHg 91%
04:00 +24°C° 0.1 mm 1 m/S 718 mmHg 91%
05:00 +24°C° 0 mm 1 m/S 719 mmHg 90%
06:00 +25°C° 0 mm 1 m/S 719 mmHg 89%
07:00 +23°C° 0 mm 0 m/S 720 mmHg 89%
08:00 +27°C° 0.5 mm 1 m/S 720 mmHg 83%
09:00 +28°C° 0.5 mm 1 m/S 720 mmHg 78%
10:00 +29°C° 0.5 mm 2 m/S 720 mmHg 73%
11:00 +29°C° 1.4 mm 1 m/S 719 mmHg 73%
12:00 +30°C° 1.4 mm 1 m/S 719 mmHg 73%
13:00 +30°C° 1.4 mm 1 m/S 718 mmHg 73%
14:00 +29°C° 1.8 mm 1 m/S 717 mmHg 79%
15:00 +27°C° 1.8 mm 1 m/S 717 mmHg 85%
16:00 +26°C° 1.8 mm 1 m/S 717 mmHg 92%
17:00 +26°C° 1.9 mm 1 m/S 717 mmHg 93%
18:00 +25°C° 1.9 mm 1 m/S 718 mmHg 93%
19:00 +25°C° 1.9 mm 1 m/S 718 mmHg 94%
20:00 +24°C° 0.3 mm 1 m/S 719 mmHg 95%
21:00 +24°C° 0.3 mm 1 m/S 719 mmHg 95%
22:00 +24°C° 0.3 mm 1 m/S 719 mmHg 96%
23:00 +24°C° 0.6 mm 1 m/S 719 mmHg 95%

übermorgen, 2 November, Montag

Zeit Temperatur Niederschläge Wind Luftdruck Luftfeuchtigkeit
00:00 +24°C° 0.6 mm 1 m/S 718 mmHg 95%
01:00 +23°C° 0.6 mm 1 m/S 718 mmHg 95%
02:00 +23°C° 0.5 mm 1 m/S 718 mmHg 94%
03:00 +23°C° 0.5 mm 1 m/S 718 mmHg 94%
04:00 +23°C° 0.5 mm 1 m/S 718 mmHg 93%
05:00 +24°C° 0 mm 1 m/S 718 mmHg 92%
06:00 +24°C° 0 mm 1 m/S 719 mmHg 91%
07:00 +24°C° 0 mm 1 m/S 719 mmHg 90%
08:00 +26°C° 0 mm 1 m/S 720 mmHg 84%
09:00 +27°C° 0 mm 1 m/S 720 mmHg 78%
10:00 +29°C° 0 mm 2 m/S 720 mmHg 72%
11:00 +29°C° 0.5 mm 2 m/S 719 mmHg 73%
12:00 +29°C° 0.5 mm 2 m/S 719 mmHg 74%
13:00 +29°C° 0.5 mm 2 m/S 718 mmHg 75%
14:00 +29°C° 1.6 mm 1 m/S 717 mmHg 79%
15:00 +28°C° 1.6 mm 1 m/S 717 mmHg 82%
16:00 +26°C° 1.6 mm 0 m/S 717 mmHg 85%
17:00 +25°C° 1.8 mm 0 m/S 717 mmHg 87%
18:00 +24°C° 1.8 mm 0 m/S 718 mmHg 89%
19:00 +25°C° 1.8 mm 1 m/S 718 mmHg 91%
20:00 +25°C° 1.2 mm 1 m/S 719 mmHg 92%
21:00 +24°C° 1.2 mm 1 m/S 719 mmHg 93%
22:00 +24°C° 1.2 mm 1 m/S 719 mmHg 93%
23:00 +24°C° 0.4 mm 1 m/S 719 mmHg 94%

3 November, Dienstag

Zeit Temperatur Niederschläge Wind Luftdruck Luftfeuchtigkeit
00:00 +24°C° 0.4 mm 1 m/S 718 mmHg 95%
01:00 +23°C° 0.4 mm 1 m/S 718 mmHg 95%
02:00 +23°C° 0.2 mm 1 m/S 718 mmHg 95%
03:00 +23°C° 0.2 mm 1 m/S 718 mmHg 95%
04:00 +23°C° 0.2 mm 1 m/S 718 mmHg 95%
05:00 +24°C° 0.3 mm 1 m/S 719 mmHg 93%
06:00 +24°C° 0.3 mm 1 m/S 719 mmHg 91%
07:00 +25°C° 0.3 mm 1 m/S 720 mmHg 89%
08:00 +26°C° 1.2 mm 1 m/S 720 mmHg 87%
09:00 +27°C° 1.2 mm 1 m/S 720 mmHg 85%
10:00 +28°C° 1.2 mm 1 m/S 721 mmHg 83%
11:00 +28°C° 1.1 mm 1 m/S 720 mmHg 82%
12:00 +28°C° 1.1 mm 1 m/S 719 mmHg 81%
13:00 +28°C° 1.1 mm 1 m/S 718 mmHg 80%
14:00 +28°C° 0.9 mm 1 m/S 718 mmHg 82%
15:00 +27°C° 0.9 mm 1 m/S 718 mmHg 84%
16:00 +27°C° 0.9 mm 1 m/S 718 mmHg 86%
17:00 +26°C° 1 mm 1 m/S 718 mmHg 88%
18:00 +25°C° 1 mm 1 m/S 719 mmHg 89%
19:00 +22°C° 1 mm 0 m/S 719 mmHg 91%
20:00 +22°C° 0.4 mm 0 m/S 719 mmHg 92%
21:00 +22°C° 0.4 mm 0 m/S 719 mmHg 92%
22:00 +22°C° 0.4 mm 0 m/S 720 mmHg 92%
23:00 +22°C° 0.2 mm 0 m/S 719 mmHg 92%

4 November, Mittwoch

Zeit Temperatur Niederschläge Wind Luftdruck Luftfeuchtigkeit
00:00 +22°C° 0.2 mm 0 m/S 719 mmHg 92%
01:00 +22°C° 0.2 mm 0 m/S 719 mmHg 92%
02:00 +22°C° 0.4 mm 0 m/S 719 mmHg 93%
03:00 +23°C° 0.4 mm 1 m/S 719 mmHg 93%
04:00 +23°C° 0.4 mm 1 m/S 719 mmHg 93%
05:00 +24°C° 0.4 mm 1 m/S 719 mmHg 92%
06:00 +24°C° 0.4 mm 1 m/S 720 mmHg 92%
07:00 +24°C° 0.4 mm 1 m/S 720 mmHg 91%
08:00 +25°C° 0.3 mm 1 m/S 720 mmHg 87%
09:00 +26°C° 0.3 mm 1 m/S 721 mmHg 84%
10:00 +27°C° 0.3 mm 1 m/S 721 mmHg 80%
11:00 +28°C° 1.2 mm 1 m/S 720 mmHg 77%
12:00 +29°C° 1.2 mm 1 m/S 719 mmHg 75%
13:00 +29°C° 1.2 mm 1 m/S 718 mmHg 73%
14:00 +29°C° 1.9 mm 1 m/S 718 mmHg 77%
15:00 +28°C° 1.9 mm 1 m/S 718 mmHg 82%
16:00 +27°C° 1.9 mm 1 m/S 717 mmHg 87%
17:00 +26°C° 0.8 mm 1 m/S 718 mmHg 89%
18:00 +25°C° 0.8 mm 1 m/S 718 mmHg 91%
19:00 +22°C° 0.8 mm 0 m/S 719 mmHg 92%
20:00 +24°C° 0.2 mm 1 m/S 719 mmHg 92%
21:00 +24°C° 0.2 mm 1 m/S 719 mmHg 93%
22:00 +24°C° 0.2 mm 1 m/S 719 mmHg 93%
23:00 +24°C° 0.2 mm 1 m/S 719 mmHg 93%

5 November, Donnerstag

Zeit Temperatur Niederschläge Wind Luftdruck Luftfeuchtigkeit
00:00 +24°C° 0.2 mm 1 m/S 719 mmHg 93%
01:00 +23°C° 0.2 mm 1 m/S 719 mmHg 94%
02:00 +23°C° 0.1 mm 1 m/S 718 mmHg 94%
03:00 +23°C° 0.1 mm 1 m/S 718 mmHg 93%
04:00 +23°C° 0.1 mm 1 m/S 718 mmHg 93%
05:00 +24°C° 0 mm 1 m/S 719 mmHg 92%
06:00 +24°C° 0 mm 1 m/S 719 mmHg 91%
07:00 +25°C° 0 mm 1 m/S 720 mmHg 89%
08:00 +26°C° 0.3 mm 1 m/S 720 mmHg 85%
09:00 +27°C° 0.3 mm 1 m/S 720 mmHg 80%
10:00 +29°C° 0.3 mm 1 m/S 720 mmHg 76%
11:00 +29°C° 1.4 mm 1 m/S 719 mmHg 76%
12:00 +27°C° 1.4 mm 0 m/S 719 mmHg 76%
13:00 +28°C° 1.4 mm 0 m/S 718 mmHg 76%
14:00 +27°C° 2.1 mm 0 m/S 717 mmHg 80%
15:00 +28°C° 2.1 mm 1 m/S 717 mmHg 83%
16:00 +28°C° 2.1 mm 1 m/S 717 mmHg 86%
17:00 +26°C° 1.4 mm 1 m/S 717 mmHg 88%
18:00 +25°C° 1.4 mm 1 m/S 717 mmHg 90%
19:00 +24°C° 1.4 mm 1 m/S 718 mmHg 92%
20:00 +24°C° 0.4 mm 1 m/S 718 mmHg 92%
21:00 +24°C° 0.4 mm 1 m/S 718 mmHg 92%
22:00 +24°C° 0.4 mm 1 m/S 718 mmHg 92%
23:00 +23°C° 0.1 mm 1 m/S 718 mmHg 92%
Mehr zeigen